THORAD AGENA D DEB, 4736

Orbit data source: Space-Track

THORAD AGENA D DEB, 4736 is space debris in SSO originally from a launch on Wed, 08 Apr 1970 UTC launched from the Air Force Western Test Range (AFWTR). Debris objects in space refer to the collection of defunct objects orbiting the Earth. Examples of debris include non-operational satellites, rocket bodies, and fragments generated from explosions, collisions, or faulty payload assembly.

Loading next visibility...
Identifier
4736, 1970-025CK
Orbit
SSO
Country
Flag of USUS
Related business
Manufacturer
Unknown
Mission
Spacecraft
Bus & Motor
Unknown
Mass
Unknown
Launch date (UTC)
1970-04-08 (56 years ago)
Launch vehicle
Unknown
Launch site
Air Force Western Test Range (AFWTR)
Object type
Payload
Rocket body
Debris
Shape & HBR
Unknown shape, 0.1 m
Radar Cross Section
Medium (>0.1 m² and <1 m²)

Expand to show TLE details & history
Last TLE update: 14 hours ago

TLE from 14 hours ago
0 THORAD AGENA D DEB
1 04736U 70025CK  25301.50025317  .00001592  00000-0  10335-2 0  9999
2 04736 100.0664 296.2833 0085987 113.7332 247.2879 14.02527019814147
Epoch: 2025-10-28T12:00Z
TLE epoch observation values (Epoch: 2025-10-28T12:00:21.873Z)
Latitude
-0.00008°
Longitude
79.10532°
Altitude
912.475 km
Speed
7.383 km/s
True Right ascension
19h 45m 07s
True Declination
0° 00' 00"
Sunlit
Object was in daylight at epoch
Visualization orbit readout
Latitude
Unknown
Longitude
Unknown
Altitude
Unknown
Speed
Unknown
Apparent Right ascension
Unknown
Apparent Declination
Unknown
Sunlit
N/A
Visualization observer readout
Local Sidereal Time
21:10:40
Azimuth
Unknown
Elevation
Unknown
Doppler factor
Unknown
Orbital elements
Apogee altitude
944.739 km
Perigee altitude
819.878 km
Semi-major axis
7,260.446 km
Eccentricity
0.0086
Inclination
100.0664°
RAAN
296.2833°
Arg. of periapsis
113.7332°
True anomaly
246.38276°
Mean anomaly
247.2879°
Eccentric anomaly
246.83495°
Mean motion
3.50831 °/min
Orbital period
102.61 mins
BSTAR
0.0010335
Loading maneuver chart data...
Computing Atmospheric mass density...

Documentation

Showing up to 5 results
|